New York City, NY - LGA

Start Spreading the News

The New York City, NY base is actually a co-domicile splitting coverage between New York's LaGuardia International Airport (LGA) and the John F. Kennedy International Airport (JFK) depending on fleet type and the type of flying. The LGA airport caters to domestic flights with a few Canadian destinations, while JFK is the long haul international hub with domestic connections.

LGA Based Pilots: 16   Miles to LGA: 108428
Flights from LGA: 185   Total Hours: 597.31
Routes using LGA: 630   From LGA: 303.88
Total Miles: 208615   Hours To LGA: 293.43
Miles from LGA: 100187   LGA Charts: Click Here
VATSIM METAR: KLGA 141351Z 23010KT 10SM FEW090 FEW200 BKN250 15/M01 A2994 RMK AO2 SLP138 T01501006 $
 
         
View More: Click Here
   

 

Earn Your Wings

Interested in joining our LGA hub? Hover for more!

Your journey starts here. Your journey starts now. A whole new experience is at your fingertips.

Like what you see and ready to join the team?

A rewarding and memorable virtual airline experience awaits!